Home > Weather > Nipigon > Past weeks

Flag for Canada Past Weather in Nipigon, Ontario, Canada — Yesterday and Last 2 Weeks

Now
64 °F

Mild.


Feels Like: 64 °F
Forecast: 52 / 74 °F
Wind: 13 mph from Northeast

Location: Katatota Island

Current Time: Jul 28, 2016 at 2:45:18 AM

Latest Report: Jul 28, 2016 at 1:00 AM


Visibility: N/A

Pressure: 30.07 "Hg

Humidity: 75%

Dew Point: 56 °F

Location of NipigonLocation

Past Weather in Nipigon — Graph

°F

Nipigon Temperature Yesterday

Maximum temperature yesterday: 70 °F (at 7:00 PM)
Minimum temperature yesterday: 60 °F (at 9:00 AM)
Average temperature yesterday: 65 °F

High & Low Weather Summary for the Past Weeks

 TemperatureHumidityPressure
High81 °F (Jul 21, 3:00 PM)96% (Jul 14, 11:00 AM)30.24 "Hg (Jul 14, 11:00 AM)
Low52 °F (Jul 14, 11:00 AM)48% (Jul 15, 5:00 PM)29.35 "Hg (Jul 13, 10:00 AM)
Average65 °F77%29.88 "Hg
* Reported Jul 13 1:00 AM — Jul 28 1:00 AM, Nipigon, Weather by CustomWeather, © 2016

Note: Actual official high and low records may vary slightly from our data, if they occured in-between our weather recording intervals... More about our weather records

Advertising

Nipigon Weather History for the Previous 24 Hours

Scroll right to see more
 ConditionsComfort  
Time TempWeatherWind HumidityBarometerVisibility
1:00 AM
Thu, Jul 28
64 °FMild.13 mph75%30.07 "HgN/A
12:00 AM64 °FMild.9 mph82%30.05 "HgN/A
11:00 PM
Wed, Jul 27
65 °FMild.7 mph83%30.04 "HgN/A
10:00 PM64 °FMild.6 mph81%30.04 "HgN/A
9:00 PM68 °FMild.8 mph68%30.03 "HgN/A
8:00 PM69 °FMild.6 mph62%30.03 "HgN/A
7:00 PM70 °FMild.6 mph61%30.03 "HgN/A
6:00 PM70 °FMild.6 mph56%30.05 "HgN/A
5:00 PM70 °FMild.8 mph58%30.05 "HgN/A
4:00 PM68 °FMild.9 mph64%30.06 "HgN/A
3:00 PM66 °FMild.9 mph63%30.06 "HgN/A
2:00 PM64 °FMild.12 mph64%30.07 "HgN/A
1:00 PM63 °FMild.12 mph67%30.07 "HgN/A
12:00 PM62 °FCool.13 mph70%30.07 "HgN/A
11:00 AM62 °FCool.10 mph68%30.07 "HgN/A
10:00 AM62 °FCool.10 mph67%30.07 "HgN/A
9:00 AM60 °FCool.9 mph72%30.08 "HgN/A
8:00 AM60 °FCool.10 mph76%30.06 "HgN/A
7:00 AM61 °FCool.15 mph74%30.05 "HgN/A
6:00 AM61 °FCool.13 mph82%30.03 "HgN/A
5:00 AM61 °FCool.15 mph84%30.01 "HgN/A
4:00 AM63 °FMild.18 mph81%30.00 "HgN/A
3:00 AM64 °FMild.16 mph78%29.99 "HgN/A
2:00 AM65 °FMild.17 mph75%29.98 "HgN/A
Weather by CustomWeather, © 2016

See weather overviewHow to use our weather pages